This is the latest recevied weather packets stored in our database for station/object KC9DNQ-3. If no packets are shown the sender has not sent any weather packets the latest 10 day(s).
| Time | Temp. | Humidity | Pressure | Rain* | Wind** | Luminosity | Snow |
|---|---|---|---|---|---|---|---|
| 1777567209 | 15° C | 42% | 1015.4 hPa | 0 mm | - | 826 W/m² | - |
| 1777566910 | 15° C | 42% | 1015.4 hPa | 0 mm | - | 853 W/m² | - |
| 1777566610 | 15° C | 42% | 1015.4 hPa | 0 mm | - | 835 W/m² | - |
| 1777566310 | 15° C | 48% | 1015.4 hPa | 0 mm | - | 819 W/m² | - |
| 1777566010 | 14.44° C | 42% | 1015.3 hPa | 0 mm | - | 812 W/m² | - |
| 1777565710 | 14.44° C | 44% | 1015.4 hPa | 0 mm | - | 803 W/m² | - |
| 1777565411 | 14.44° C | 43% | 1015.7 hPa | 0 mm | - | 796 W/m² | - |
| 1777565110 | 14.44° C | 46% | 1015.7 hPa | 0 mm | - | 784 W/m² | - |
| 1777564810 | 13.89° C | 45% | 1015.7 hPa | 0 mm | - | 772 W/m² | - |
| 1777564509 | 13.89° C | 45% | 1015.8 hPa | 0 mm | - | 772 W/m² | - |
| 1777564210 | 13.89° C | 44% | 1015.9 hPa | 0 mm | - | 812 W/m² | - |
| 1777563916 | 13.33° C | 48% | 1015.9 hPa | 0 mm | - | 773 W/m² | - |
| 1777563609 | 13.33° C | 44% | 1016 hPa | 0 mm | - | 780 W/m² | - |
| 1777563310 | 13.33° C | 46% | 1016 hPa | 0 mm | - | 740 W/m² | - |
| 1777563009 | 12.78° C | 50% | 1016 hPa | 0 mm | - | 229 W/m² | - |
| 1777562710 | 12.78° C | 51% | 1016 hPa | 0 mm | - | 309 W/m² | - |
| 1777562410 | 12.78° C | 48% | 1015.9 hPa | 0 mm | - | 775 W/m² | - |
| 1777562110 | 12.78° C | 45% | 1015.9 hPa | 0 mm | - | 775 W/m² | - |
| 1777561810 | 12.78° C | 52% | 1016 hPa | 0 mm | - | 120 W/m² | - |
| 1777561510 | 12.78° C | 54% | 1016.1 hPa | 0 mm | - | 237 W/m² | - |
| 1777561210 | 12.78° C | 51% | 1016.1 hPa | 0 mm | - | 343 W/m² | - |
| 1777560910 | 12.22° C | 53% | 1016.2 hPa | 0 mm | - | 213 W/m² | - |
| 1777560609 | 12.22° C | 52% | 1016.2 hPa | 0 mm | - | 267 W/m² | - |
| 1777560310 | 12.22° C | 55% | 1016.2 hPa | 0 mm | - | 274 W/m² | - |
| 1777560010 | 12.22° C | 63% | 1016.3 hPa | 0 mm | - | 436 W/m² | - |
* Rain latest hour (hover to see other rain measurements)
** Current wind speed in m/s (hover to see current wind gust speed)